Regional Weather Roundup
Issued by NWS

Home | Current Version | Previous Version | Graphics & Text | Print | Product List | Glossary On
Versions: 1 2 3 4 5 6 7 8 9 10 11 12 13 14 15 16 17 18 19 20 21 22 23 24 25 26 27 28 29 30 31 32 33 34 35 36 37 38 39 40 41 42 43 44 45 46 47 48 49 50
000
ASUS45 KSLC 282010
RWRUT

UTAH REGIONAL WEATHER ROUNDUP
NATIONAL WEATHER SERVICE SALT LAKE CITY UT
200 PM MDT THU AUG 28 2014

UTZ001>011-023>025-282100-

NORTHERN UTAH

CITY           SKY/WX    TMP DP  RH WIND       PRES   REMARKS
HILL AFB       SUNNY     77  48  35 NW3       30.22F
LOGAN          SUNNY     78  52  40 VRB6      30.19F
OGDEN          SUNNY     79  47  32 VRB3      30.19F
PROVO AIRPORT  MOSUNNY   75  48  38 VRB5      30.22F
SALT LAKE CITY MOSUNNY   82  45  27 W6        30.18F
VERNAL         PTSUNNY   69  55  60 S3        30.23F
WENDOVER       SUNNY     81  46  30 E8        30.18F
HEBER CITY     SUNNY     72  52  49 CALM      30.26F
WEST JORDAN    SUNNY     81  55  41 S3        30.21F

$$

UTZ012>022-026-027-282100-

SOUTHERN UTAH

CITY           SKY/WX    TMP DP  RH WIND       PRES   REMARKS
BRYCE CANYON   SUNNY     71  43  36 VRB7      30.38F
CEDAR CITY     SUNNY     79  35  20 VRB7      30.25F
MILFORD        SUNNY     83  38  20 N12       30.21F
MOAB/CYNLANDS  SUNNY     79  45  29 SW3       30.17F
PRICE          SUNNY     78  39  24 S10       30.25F
ST GEORGE      CLEAR     90  48  24 CALM      30.08F

$$

REGIONAL REPORTS     COLORADO/ARIZONA

CITY           SKY/WX    TMP DP  RH WIND       PRES   REMARKS
CRAIG, CO      MOSUNNY   67  49  52 MISG      30.28F
GRAND JUNCTION PTSUNNY   71  50  47 MISG      30.22F
RIFLE          MOSUNNY   68  52  56 VRB5      30.25F
MONTROSE       MOSUNNY   69  47  45 VRB5      30.30F
CORTEZ         MOSUNNY   76  44  32 N14G23    30.25F
PAGE, AZ       SUNNY     84  40  21 N6        30.17F
GRAND CANYON   SUNNY     75  37  25 VRB7      30.32F
KINGMAN        SUNNY     92  33  12 SE6       30.10F
FLAGSTAFF      MOSUNNY   73  41  31 S8        30.34F

$$

REGIONAL REPORTS    NEVADA/IDAHO/WYOMING

CITY           SKY/WX    TMP DP  RH WIND       PRES   REMARKS
LAS VEGAS, NV  SUNNY     95  37  13 SW5       29.97F HX  90
ELY            SUNNY     80  27  14 N9        30.30F
ELKO           SUNNY     85  31  14 S5        30.20F
POCATELLO, ID  MOSUNNY   84  44  24 W9G18     30.15F
BURLEY         SUNNY     82  43  25 VRB5      30.12F
EVANSTON, WY   PTSUNNY   69  40  34 N13       30.33F
ROCK SPRINGS   SUNNY     70  38  31 NW14      30.28F

$$


USA.gov is the U.S. government's official web portal to all federal, state and local government web resources and services.